When you browse on this site, cookies collect data to enhance your experience and personalize the content and advertising you see.
Visit our Privacy Policy to learn more. By continuing to use the site, you agree to this use of cookies and data.
  • In Hungary
  • List of Countries
  • For 7 days
  • Water Temperature
  • Weather Map
  • News
  • Weather Widgets
  • user-avatar
    Login

    Hourly Weather Nowica

    Today, 6 April, Monday

    Time Temperature Precipitation Wind Pressure Humidity
    00:00 +5°C° 0 mm 5 mps 757 mmHg 60%
    01:00 +5°C° 0 mm 4 mps 756 mmHg 61%
    02:00 +4°C° 0 mm 4 mps 756 mmHg 62%
    03:00 +4°C° 0 mm 4 mps 756 mmHg 63%
    04:00 +3°C° 0 mm 4 mps 756 mmHg 64%
    05:00 +4°C° 0 mm 4 mps 756 mmHg 64%
    06:00 +5°C° 0 mm 4 mps 756 mmHg 64%
    07:00 +6°C° 0 mm 5 mps 756 mmHg 63%
    08:00 +8°C° 0 mm 5 mps 756 mmHg 58%
    09:00 +12°C° 0 mm 5 mps 756 mmHg 53%
    10:00 +14°C° 0 mm 6 mps 756 mmHg 48%
    11:00 +15°C° 0 mm 5 mps 756 mmHg 45%
    12:00 +17°C° 0 mm 5 mps 756 mmHg 42%
    13:00 +19°C° 0 mm 5 mps 756 mmHg 39%
    14:00 +19°C° 0 mm 5 mps 756 mmHg 41%
    15:00 +19°C° 0 mm 5 mps 756 mmHg 43%
    16:00 +17°C° 0 mm 5 mps 756 mmHg 45%
    17:00 +15°C° 0 mm 5 mps 756 mmHg 50%
    18:00 +13°C° 0 mm 4 mps 756 mmHg 56%
    19:00 +12°C° 0 mm 4 mps 756 mmHg 61%
    20:00 +11°C° 0 mm 4 mps 756 mmHg 62%
    21:00 +10°C° 0 mm 4 mps 757 mmHg 62%
    22:00 +8°C° 0 mm 4 mps 757 mmHg 63%
    23:00 +8°C° 0 mm 4 mps 757 mmHg 62%

    Tomorrow, 7 April, Tuesday

    Time Temperature Precipitation Wind Pressure Humidity
    00:00 +7°C° 0 mm 4 mps 757 mmHg 61%
    01:00 +7°C° 0 mm 4 mps 757 mmHg 61%
    02:00 +6°C° 0 mm 4 mps 757 mmHg 58%
    03:00 +6°C° 0 mm 4 mps 757 mmHg 56%
    04:00 +6°C° 0 mm 4 mps 757 mmHg 54%
    05:00 +6°C° 0 mm 4 mps 757 mmHg 53%
    06:00 +7°C° 0 mm 5 mps 758 mmHg 52%
    07:00 +7°C° 0 mm 5 mps 758 mmHg 50%
    08:00 +9°C° 0 mm 5 mps 758 mmHg 48%
    09:00 +12°C° 0 mm 5 mps 758 mmHg 45%
    10:00 +14°C° 0 mm 5 mps 758 mmHg 43%
    11:00 +15°C° 0 mm 4 mps 758 mmHg 43%
    12:00 +18°C° 0 mm 4 mps 758 mmHg 43%
    13:00 +19°C° 0 mm 4 mps 758 mmHg 43%
    14:00 +19°C° 0 mm 3 mps 758 mmHg 44%
    15:00 +19°C° 0 mm 3 mps 758 mmHg 45%
    16:00 +19°C° 0 mm 2 mps 758 mmHg 46%
    17:00 +17°C° 0 mm 2 mps 758 mmHg 51%
    18:00 +15°C° 0 mm 2 mps 758 mmHg 57%
    19:00 +13°C° 0 mm 2 mps 757 mmHg 62%
    20:00 +13°C° 0 mm 2 mps 758 mmHg 63%
    21:00 +12°C° 0 mm 2 mps 758 mmHg 63%
    22:00 +10°C° 0 mm 2 mps 758 mmHg 63%
    23:00 +9°C° 0 mm 2 mps 758 mmHg 63%

    Day after tomorrow, 8 April, Wednesday

    Time Temperature Precipitation Wind Pressure Humidity
    00:00 +10°C° 0 mm 1 mps 758 mmHg 64%
    01:00 +9°C° 0 mm 1 mps 758 mmHg 64%
    02:00 +9°C° 0 mm 1 mps 758 mmHg 64%
    03:00 +8°C° 0 mm 1 mps 758 mmHg 63%
    04:00 +8°C° 0 mm 1 mps 758 mmHg 63%
    05:00 +9°C° 0 mm 1 mps 758 mmHg 61%
    06:00 +9°C° 0 mm 1 mps 758 mmHg 60%
    07:00 +9°C° 0 mm 2 mps 757 mmHg 59%
    08:00 +12°C° 0 mm 2 mps 757 mmHg 54%
    09:00 +14°C° 0 mm 2 mps 757 mmHg 49%
    10:00 +16°C° 0 mm 2 mps 757 mmHg 44%
    11:00 +17°C° 0 mm 2 mps 756 mmHg 40%
    12:00 +18°C° 0 mm 2 mps 756 mmHg 37%
    13:00 +19°C° 0 mm 2 mps 755 mmHg 33%
    14:00 +19°C° 0 mm 2 mps 755 mmHg 33%
    15:00 +19°C° 0 mm 2 mps 754 mmHg 33%
    16:00 +19°C° 0 mm 3 mps 753 mmHg 33%
    17:00 +17°C° 0 mm 2 mps 753 mmHg 38%
    18:00 +15°C° 0 mm 2 mps 753 mmHg 43%
    19:00 +13°C° 0 mm 2 mps 753 mmHg 48%
    20:00 +12°C° 0 mm 2 mps 753 mmHg 50%
    21:00 +11°C° 0 mm 3 mps 753 mmHg 52%
    22:00 +10°C° 0 mm 3 mps 753 mmHg 55%
    23:00 +9°C° 0 mm 3 mps 753 mmHg 57%

    9 April, Thursday

    Time Temperature Precipitation Wind Pressure Humidity
    00:00 +9°C° 0 mm 3 mps 752 mmHg 59%
    01:00 +8°C° 0 mm 3 mps 752 mmHg 62%
    02:00 +7°C° 0 mm 2 mps 752 mmHg 63%
    03:00 +7°C° 0 mm 2 mps 751 mmHg 65%
    04:00 +7°C° 0 mm 2 mps 751 mmHg 67%
    05:00 +7°C° 0 mm 2 mps 751 mmHg 66%
    06:00 +8°C° 0 mm 2 mps 751 mmHg 66%
    07:00 +9°C° 0 mm 2 mps 751 mmHg 65%
    08:00 +11°C° 0 mm 3 mps 751 mmHg 61%
    09:00 +14°C° 0 mm 3 mps 751 mmHg 58%
    10:00 +17°C° 0 mm 4 mps 751 mmHg 54%
    11:00 +18°C° 0 mm 4 mps 751 mmHg 53%
    12:00 +18°C° 0 mm 4 mps 751 mmHg 52%
    13:00 +19°C° 0 mm 5 mps 750 mmHg 52%
    14:00 +19°C° 0.2 mm 4 mps 750 mmHg 52%
    15:00 +19°C° 0.2 mm 4 mps 750 mmHg 53%
    16:00 +19°C° 0.2 mm 4 mps 750 mmHg 53%
    17:00 +17°C° 0 mm 3 mps 750 mmHg 59%
    18:00 +14°C° 0 mm 3 mps 750 mmHg 64%
    19:00 +14°C° 0 mm 2 mps 750 mmHg 69%
    20:00 +13°C° 0 mm 2 mps 750 mmHg 71%
    21:00 +12°C° 0 mm 2 mps 751 mmHg 74%
    22:00 +10°C° 0 mm 2 mps 751 mmHg 76%
    23:00 +10°C° 0 mm 2 mps 751 mmHg 78%

    10 April, Friday

    Time Temperature Precipitation Wind Pressure Humidity
    00:00 +9°C° 0 mm 2 mps 751 mmHg 80%
    01:00 +9°C° 0 mm 2 mps 751 mmHg 81%
    02:00 +8°C° 0 mm 2 mps 751 mmHg 85%
    03:00 +9°C° 0 mm 1 mps 751 mmHg 88%
    04:00 +8°C° 0 mm 1 mps 752 mmHg 91%
    05:00 +9°C° 0 mm 1 mps 752 mmHg 89%
    06:00 +9°C° 0 mm 1 mps 752 mmHg 87%
    07:00 +10°C° 0 mm 1 mps 752 mmHg 84%
    08:00 +11°C° 0 mm 1 mps 752 mmHg 78%
    09:00 +13°C° 0 mm 1 mps 752 mmHg 71%
    10:00 +14°C° 0 mm 1 mps 752 mmHg 65%
    11:00 +15°C° 0 mm 2 mps 752 mmHg 62%
    12:00 +15°C° 0 mm 2 mps 751 mmHg 58%
    13:00 +16°C° 0 mm 2 mps 751 mmHg 55%
    14:00 +16°C° 0 mm 2 mps 750 mmHg 56%
    15:00 +16°C° 0 mm 2 mps 750 mmHg 56%
    16:00 +16°C° 0 mm 2 mps 749 mmHg 57%
    17:00 +15°C° 0 mm 1 mps 749 mmHg 62%
    18:00 +13°C° 0 mm 1 mps 749 mmHg 67%
    19:00 +11°C° 0 mm 0 mps 749 mmHg 71%
    20:00 +11°C° 0 mm 1 mps 749 mmHg 74%
    21:00 +11°C° 0 mm 1 mps 749 mmHg 77%
    22:00 +10°C° 0 mm 1 mps 749 mmHg 80%
    23:00 +10°C° 0 mm 1 mps 749 mmHg 81%

    11 April, Saturday

    Time Temperature Precipitation Wind Pressure Humidity
    00:00 +10°C° 0 mm 1 mps 749 mmHg 83%
    01:00 +10°C° 0 mm 1 mps 749 mmHg 84%
    02:00 +9°C° 0 mm 0 mps 749 mmHg 84%
    03:00 +9°C° 0 mm 0 mps 748 mmHg 85%
    04:00 +8°C° 0 mm 0 mps 748 mmHg 85%
    05:00 +9°C° 0 mm 0 mps 749 mmHg 82%
    06:00 +10°C° 0 mm 0 mps 749 mmHg 79%
    07:00 +12°C° 0 mm 1 mps 749 mmHg 76%
    08:00 +13°C° 0 mm 1 mps 749 mmHg 70%
    09:00 +15°C° 0 mm 1 mps 749 mmHg 64%
    10:00 +16°C° 0 mm 0 mps 749 mmHg 58%
    11:00 +18°C° 0 mm 1 mps 749 mmHg 53%
    12:00 +19°C° 0 mm 1 mps 749 mmHg 48%
    13:00 +20°C° 0 mm 1 mps 749 mmHg 43%
    14:00 +20°C° 0 mm 1 mps 748 mmHg 43%
    15:00 +19°C° 0 mm 2 mps 748 mmHg 42%
    16:00 +19°C° 0 mm 2 mps 748 mmHg 42%
    17:00 +17°C° 0 mm 2 mps 748 mmHg 45%
    18:00 +14°C° 0 mm 3 mps 748 mmHg 49%
    19:00 +12°C° 0 mm 3 mps 748 mmHg 53%
    20:00 +12°C° 0 mm 3 mps 749 mmHg 51%
    21:00 +12°C° 0 mm 4 mps 749 mmHg 49%
    22:00 +11°C° 0 mm 4 mps 749 mmHg 47%
    23:00 +11°C° 0 mm 4 mps 749 mmHg 47%
    Show more